• In Uzbekistan
  • List of Countries
  • For 7 days
  • Water Temperature
  • Satellite Maps
  • Weather Map
  • Weather Widgets
  • user-avatar
    Login

    Hourly Weather Bekescsaba

    Today, 20 September, Thursday

    Time Temperature Precipitation Wind Pressure Humidity
    00:00 +20°C° 0 mm 2 mps 758 mmHg 53%
    01:00 +21°C° 0 mm 2 mps 758 mmHg 52%
    02:00 +20°C° 0 mm 2 mps 758 mmHg 53%
    03:00 +20°C° 0 mm 2 mps 758 mmHg 53%
    04:00 +21°C° 0 mm 1 mps 758 mmHg 54%
    05:00 +21°C° 0 mm 1 mps 758 mmHg 52%
    06:00 +22°C° 0 mm 1 mps 758 mmHg 51%
    07:00 +23°C° 0 mm 1 mps 758 mmHg 49%
    08:00 +25°C° 0 mm 1 mps 758 mmHg 44%
    09:00 +27°C° 0 mm 1 mps 758 mmHg 38%
    10:00 +28°C° 0 mm 1 mps 758 mmHg 33%
    11:00 +29°C° 0 mm 1 mps 758 mmHg 31%
    12:00 +30°C° 0 mm 1 mps 757 mmHg 30%
    13:00 +31°C° 0 mm 1 mps 757 mmHg 28%
    14:00 +31°C° 0 mm 1 mps 757 mmHg 28%
    15:00 +31°C° 0 mm 1 mps 756 mmHg 28%
    16:00 +31°C° 0 mm 1 mps 756 mmHg 28%
    17:00 +29°C° 0 mm 2 mps 756 mmHg 32%
    18:00 +27°C° 0 mm 2 mps 756 mmHg 37%
    19:00 +25°C° 0 mm 2 mps 756 mmHg 41%
    20:00 +24°C° 0 mm 2 mps 756 mmHg 44%
    21:00 +24°C° 0 mm 2 mps 756 mmHg 48%
    22:00 +23°C° 0 mm 2 mps 756 mmHg 51%
    23:00 +21°C° 0 mm 2 mps 756 mmHg 52%

    Tomorrow, 21 September, Friday

    Time Temperature Precipitation Wind Pressure Humidity
    00:00 +21°C° 0 mm 2 mps 756 mmHg 53%
    01:00 +20°C° 0 mm 2 mps 756 mmHg 54%
    02:00 +20°C° 0 mm 2 mps 756 mmHg 55%
    03:00 +20°C° 0 mm 2 mps 756 mmHg 55%
    04:00 +19°C° 0 mm 2 mps 756 mmHg 55%
    05:00 +20°C° 0 mm 2 mps 756 mmHg 52%
    06:00 +20°C° 0 mm 2 mps 756 mmHg 49%
    07:00 +21°C° 0 mm 2 mps 756 mmHg 46%
    08:00 +24°C° 0 mm 2 mps 756 mmHg 40%
    09:00 +27°C° 0 mm 3 mps 756 mmHg 33%
    10:00 +29°C° 0 mm 3 mps 756 mmHg 27%
    11:00 +30°C° 0 mm 3 mps 755 mmHg 25%
    12:00 +31°C° 0 mm 3 mps 755 mmHg 24%
    13:00 +33°C° 0 mm 3 mps 755 mmHg 22%
    14:00 +31°C° 0 mm 3 mps 754 mmHg 22%
    15:00 +31°C° 0 mm 3 mps 754 mmHg 22%
    16:00 +31°C° 0 mm 3 mps 753 mmHg 21%
    17:00 +29°C° 0 mm 3 mps 753 mmHg 25%
    18:00 +27°C° 0 mm 3 mps 754 mmHg 28%
    19:00 +25°C° 0 mm 3 mps 754 mmHg 32%
    20:00 +24°C° 0 mm 3 mps 754 mmHg 35%
    21:00 +22°C° 0 mm 3 mps 754 mmHg 38%
    22:00 +22°C° 0 mm 3 mps 754 mmHg 41%
    23:00 +21°C° 0 mm 3 mps 754 mmHg 43%

    Day after tomorrow, 22 September, Saturday

    Time Temperature Precipitation Wind Pressure Humidity
    00:00 +21°C° 0 mm 3 mps 754 mmHg 46%
    01:00 +20°C° 0 mm 3 mps 754 mmHg 48%
    02:00 +20°C° 0 mm 3 mps 754 mmHg 49%
    03:00 +19°C° 0 mm 3 mps 754 mmHg 49%
    04:00 +19°C° 0 mm 3 mps 754 mmHg 50%
    05:00 +20°C° 0 mm 3 mps 754 mmHg 48%
    06:00 +20°C° 0 mm 3 mps 755 mmHg 46%
    07:00 +21°C° 0 mm 3 mps 755 mmHg 44%
    08:00 +22°C° 0 mm 3 mps 755 mmHg 42%
    09:00 +25°C° 0 mm 4 mps 755 mmHg 40%
    10:00 +26°C° 0 mm 4 mps 756 mmHg 38%
    11:00 +26°C° 0 mm 5 mps 756 mmHg 39%
    12:00 +26°C° 0 mm 5 mps 756 mmHg 39%
    13:00 +26°C° 0 mm 6 mps 756 mmHg 40%
    14:00 +23°C° 0 mm 6 mps 756 mmHg 44%
    15:00 +22°C° 0 mm 6 mps 757 mmHg 47%
    16:00 +20°C° 0 mm 6 mps 757 mmHg 51%
    17:00 +19°C° 0 mm 6 mps 758 mmHg 55%
    18:00 +16°C° 0 mm 5 mps 758 mmHg 58%
    19:00 +15°C° 0 mm 5 mps 759 mmHg 62%
    20:00 +15°C° 0 mm 4 mps 759 mmHg 61%
    21:00 +14°C° 0 mm 3 mps 760 mmHg 61%
    22:00 +15°C° 0 mm 2 mps 760 mmHg 60%
    23:00 +15°C° 0 mm 2 mps 760 mmHg 62%

    23 September, Sunday

    Time Temperature Precipitation Wind Pressure Humidity
    00:00 +14°C° 0 mm 2 mps 760 mmHg 64%
    01:00 +14°C° 0 mm 2 mps 760 mmHg 66%
    02:00 +13°C° 0 mm 1 mps 760 mmHg 68%
    03:00 +13°C° 0 mm 1 mps 760 mmHg 70%
    04:00 +12°C° 0 mm 1 mps 760 mmHg 72%
    05:00 +13°C° 0 mm 1 mps 760 mmHg 69%
    06:00 +14°C° 0 mm 1 mps 761 mmHg 67%
    07:00 +14°C° 0 mm 1 mps 761 mmHg 64%
    08:00 +16°C° 0 mm 1 mps 761 mmHg 57%
    09:00 +18°C° 0 mm 2 mps 760 mmHg 49%
    10:00 +20°C° 0 mm 2 mps 760 mmHg 41%
    11:00 +21°C° 0 mm 2 mps 760 mmHg 37%
    12:00 +24°C° 0 mm 3 mps 759 mmHg 32%
    13:00 +25°C° 0 mm 3 mps 758 mmHg 27%
    14:00 +25°C° 0 mm 3 mps 758 mmHg 27%
    15:00 +26°C° 0 mm 3 mps 757 mmHg 27%
    16:00 +26°C° 0 mm 4 mps 756 mmHg 27%
    17:00 +23°C° 0 mm 4 mps 756 mmHg 30%
    18:00 +22°C° 0 mm 4 mps 756 mmHg 33%
    19:00 +21°C° 0 mm 4 mps 755 mmHg 36%
    20:00 +20°C° 0 mm 4 mps 755 mmHg 36%
    21:00 +20°C° 0 mm 4 mps 754 mmHg 37%
    22:00 +20°C° 0 mm 5 mps 754 mmHg 37%
    23:00 +20°C° 0 mm 5 mps 753 mmHg 39%

    24 September, Monday

    Time Temperature Precipitation Wind Pressure Humidity
    00:00 +20°C° 0 mm 5 mps 752 mmHg 40%
    01:00 +20°C° 0 mm 6 mps 751 mmHg 42%
    02:00 +20°C° 0 mm 6 mps 751 mmHg 44%
    03:00 +20°C° 0 mm 6 mps 750 mmHg 46%
    04:00 +20°C° 0 mm 6 mps 750 mmHg 49%
    05:00 +20°C° 0.5 mm 6 mps 750 mmHg 55%
    06:00 +20°C° 0.5 mm 6 mps 751 mmHg 61%
    07:00 +21°C° 0.5 mm 7 mps 751 mmHg 67%
    08:00 +18°C° 0.4 mm 7 mps 753 mmHg 66%
    09:00 +17°C° 0.4 mm 7 mps 754 mmHg 65%
    10:00 +16°C° 0.4 mm 7 mps 756 mmHg 64%
    11:00 +15°C° 0.1 mm 7 mps 756 mmHg 60%
    12:00 +15°C° 0.1 mm 6 mps 757 mmHg 57%
    13:00 +15°C° 0.1 mm 6 mps 758 mmHg 53%
    14:00 +16°C° 0 mm 6 mps 758 mmHg 46%
    15:00 +17°C° 0 mm 6 mps 759 mmHg 39%
    16:00 +17°C° 0 mm 6 mps 759 mmHg 33%
    17:00 +16°C° 0 mm 5 mps 760 mmHg 35%
    18:00 +15°C° 0 mm 4 mps 760 mmHg 38%
    19:00 +13°C° 0 mm 4 mps 761 mmHg 41%
    20:00 +13°C° 0 mm 4 mps 761 mmHg 43%
    21:00 +12°C° 0 mm 4 mps 761 mmHg 45%
    22:00 +12°C° 0 mm 4 mps 762 mmHg 47%
    23:00 +11°C° 0 mm 3 mps 762 mmHg 49%

    25 September, Tuesday

    Time Temperature Precipitation Wind Pressure Humidity
    00:00 +11°C° 0 mm 3 mps 762 mmHg 51%
    01:00 +10°C° 0 mm 3 mps 762 mmHg 53%
    02:00 +9°C° 0 mm 2 mps 762 mmHg 56%
    03:00 +9°C° 0 mm 2 mps 763 mmHg 58%
    04:00 +8°C° 0 mm 2 mps 763 mmHg 60%
    05:00 +9°C° 0 mm 2 mps 763 mmHg 59%
    06:00 +10°C° 0 mm 2 mps 763 mmHg 57%
    07:00 +10°C° 0 mm 3 mps 763 mmHg 55%
    08:00 +12°C° 0 mm 3 mps 763 mmHg 51%
    09:00 +13°C° 0 mm 3 mps 764 mmHg 46%
    10:00 +16°C° 0 mm 3 mps 764 mmHg 41%
    11:00 +17°C° 0 mm 3 mps 763 mmHg 38%
    12:00 +18°C° 0 mm 3 mps 763 mmHg 34%
    13:00 +18°C° 0 mm 3 mps 763 mmHg 31%
    14:00 +18°C° 0 mm 3 mps 762 mmHg 31%
    15:00 +18°C° 0 mm 3 mps 762 mmHg 31%
    16:00 +18°C° 0 mm 3 mps 762 mmHg 32%
    17:00 +16°C° 0 mm 3 mps 762 mmHg 34%
    18:00 +14°C° 0 mm 3 mps 763 mmHg 37%
    19:00 +14°C° 0 mm 2 mps 763 mmHg 40%
    20:00 +14°C° 0 mm 2 mps 763 mmHg 42%
    21:00 +13°C° 0 mm 2 mps 763 mmHg 45%
    22:00 +12°C° 0 mm 2 mps 764 mmHg 47%
    23:00 +10°C° 0 mm 2 mps 764 mmHg 50%
    Show more